Location: Castelbiague
(43.0361°N, 0.9246°E)
Time: 10:56:01
(UTC+00:00)

Cosmos 2123 Rocket - Pass Details

Date: 17 June 2021
Orbit: 961 x 992 km, 82.9° (Epoch: 27 July)

Event Time Altitude Azimuth Distance (km) Brightness Sun altitude
Exits shadow 21:59:13 20° 191° (S) 2,103 5.3 -18.2°
Maximum altitude 22:03:47 81° 277° (W) 1,004 4.1 -18.6°
Drops below altitude 10° 22:10:09 10° 6° (N) 2,763 7.2 -19.1°
Sets 22:12:41 0° 8° (N) 3,717 8.0 -19.3°
